EN

Hourly Weather Ladyga

Today, 25 July, Sunday

Time Temperature Precipitation Wind Pressure Humidity
00:00 +18°C° 0 mm 1 mps 746 mmHg 75%
01:00 +18°C° 0 mm 1 mps 746 mmHg 73%
02:00 +18°C° 0 mm 1 mps 746 mmHg 71%
03:00 +18°C° 0 mm 1 mps 746 mmHg 70%
04:00 +18°C° 0 mm 1 mps 746 mmHg 68%
05:00 +18°C° 0 mm 1 mps 747 mmHg 67%
06:00 +19°C° 0 mm 1 mps 747 mmHg 63%
07:00 +21°C° 0 mm 1 mps 747 mmHg 60%
08:00 +22°C° 0 mm 1 mps 747 mmHg 55%
09:00 +24°C° 0 mm 1 mps 747 mmHg 52%
10:00 +25°C° 0 mm 1 mps 747 mmHg 49%
11:00 +27°C° 0 mm 1 mps 748 mmHg 45%
12:00 +27°C° 0 mm 1 mps 748 mmHg 44%
13:00 +28°C° 0 mm 1 mps 748 mmHg 43%
14:00 +28°C° 0 mm 1 mps 747 mmHg 42%
15:00 +28°C° 0 mm 1 mps 747 mmHg 44%
16:00 +27°C° 0 mm 1 mps 747 mmHg 47%
17:00 +27°C° 0 mm 1 mps 747 mmHg 49%
18:00 +25°C° 0 mm 1 mps 747 mmHg 53%
19:00 +24°C° 0 mm 1 mps 747 mmHg 56%
20:00 +23°C° 0 mm 1 mps 747 mmHg 60%
21:00 +22°C° 0 mm 1 mps 748 mmHg 63%
22:00 +21°C° 0 mm 1 mps 748 mmHg 67%
23:00 +20°C° 0 mm 1 mps 748 mmHg 70%

Tomorrow, 26 July, Monday

Time Temperature Precipitation Wind Pressure Humidity
00:00 +20°C° 0 mm 1 mps 748 mmHg 71%
01:00 +20°C° 0 mm 1 mps 748 mmHg 72%
02:00 +19°C° 0 mm 1 mps 748 mmHg 73%
03:00 +19°C° 0 mm 1 mps 748 mmHg 75%
04:00 +19°C° 0 mm 1 mps 748 mmHg 77%
05:00 +17°C° 0 mm 2 mps 748 mmHg 79%
06:00 +19°C° 0 mm 2 mps 748 mmHg 73%
07:00 +21°C° 0 mm 2 mps 748 mmHg 67%
08:00 +24°C° 0 mm 3 mps 749 mmHg 61%
09:00 +25°C° 0 mm 3 mps 749 mmHg 57%
10:00 +27°C° 0 mm 3 mps 749 mmHg 52%
11:00 +28°C° 0 mm 4 mps 749 mmHg 47%
12:00 +28°C° 0 mm 4 mps 748 mmHg 45%
13:00 +29°C° 0 mm 4 mps 748 mmHg 43%
14:00 +29°C° 0 mm 4 mps 748 mmHg 41%
15:00 +29°C° 0 mm 4 mps 748 mmHg 44%
16:00 +28°C° 0 mm 4 mps 748 mmHg 46%
17:00 +28°C° 0 mm 4 mps 748 mmHg 49%
18:00 +26°C° 0 mm 4 mps 748 mmHg 55%
19:00 +24°C° 0 mm 3 mps 747 mmHg 61%
20:00 +22°C° 0 mm 3 mps 747 mmHg 67%
21:00 +21°C° 0 mm 3 mps 747 mmHg 68%
22:00 +20°C° 0 mm 3 mps 748 mmHg 69%
23:00 +20°C° 0 mm 3 mps 748 mmHg 70%

Day after tomorrow, 27 July, Tuesday

Time Temperature Precipitation Wind Pressure Humidity
00:00 +20°C° 0 mm 3 mps 748 mmHg 70%
01:00 +19°C° 0 mm 3 mps 747 mmHg 70%
02:00 +19°C° 0 mm 3 mps 747 mmHg 69%
03:00 +20°C° 0 mm 3 mps 747 mmHg 68%
04:00 +20°C° 0 mm 3 mps 747 mmHg 67%
05:00 +20°C° 0 mm 3 mps 747 mmHg 66%
06:00 +21°C° 0 mm 4 mps 747 mmHg 65%
07:00 +22°C° 0 mm 4 mps 746 mmHg 64%
08:00 +23°C° 0 mm 5 mps 746 mmHg 63%
09:00 +23°C° 0 mm 5 mps 746 mmHg 61%
10:00 +25°C° 0 mm 5 mps 746 mmHg 58%
11:00 +26°C° 0 mm 5 mps 746 mmHg 56%
12:00 +27°C° 0 mm 5 mps 745 mmHg 52%
13:00 +28°C° 0 mm 6 mps 745 mmHg 49%
14:00 +29°C° 0 mm 7 mps 745 mmHg 46%
15:00 +29°C° 0 mm 6 mps 744 mmHg 48%
16:00 +29°C° 0 mm 6 mps 744 mmHg 51%
17:00 +29°C° 0 mm 6 mps 744 mmHg 53%
18:00 +26°C° 1 mm 6 mps 743 mmHg 65%
19:00 +23°C° 1 mm 5 mps 743 mmHg 78%
20:00 +21°C° 1 mm 5 mps 743 mmHg 90%
21:00 +21°C° 1.6 mm 5 mps 743 mmHg 92%
22:00 +20°C° 1.6 mm 4 mps 743 mmHg 94%
23:00 +20°C° 1.6 mm 4 mps 742 mmHg 96%

28 July, Wednesday

Time Temperature Precipitation Wind Pressure Humidity
00:00 +20°C° 0.2 mm 4 mps 742 mmHg 96%
01:00 +20°C° 0.2 mm 3 mps 742 mmHg 97%
02:00 +20°C° 0.2 mm 3 mps 742 mmHg 97%
03:00 +20°C° 0 mm 3 mps 742 mmHg 97%
04:00 +19°C° 0 mm 3 mps 742 mmHg 97%
05:00 +19°C° 0 mm 3 mps 742 mmHg 97%
06:00 +20°C° 0 mm 3 mps 742 mmHg 93%
07:00 +21°C° 0 mm 4 mps 742 mmHg 88%
08:00 +22°C° 0 mm 4 mps 743 mmHg 84%
09:00 +23°C° 0 mm 4 mps 743 mmHg 75%
10:00 +26°C° 0 mm 5 mps 743 mmHg 66%
11:00 +28°C° 0 mm 5 mps 743 mmHg 56%
12:00 +28°C° 0 mm 5 mps 743 mmHg 53%
13:00 +29°C° 0 mm 5 mps 743 mmHg 50%
14:00 +29°C° 0 mm 6 mps 743 mmHg 47%
15:00 +29°C° 0 mm 5 mps 743 mmHg 48%
16:00 +29°C° 0 mm 5 mps 743 mmHg 49%
17:00 +29°C° 0 mm 5 mps 743 mmHg 50%
18:00 +27°C° 0 mm 4 mps 743 mmHg 58%
19:00 +26°C° 0 mm 3 mps 743 mmHg 65%
20:00 +24°C° 0 mm 2 mps 742 mmHg 73%
21:00 +23°C° 0 mm 2 mps 743 mmHg 74%
22:00 +23°C° 0 mm 2 mps 743 mmHg 75%
23:00 +21°C° 0 mm 2 mps 743 mmHg 77%

29 July, Thursday

Time Temperature Precipitation Wind Pressure Humidity
00:00 +21°C° 0 mm 2 mps 743 mmHg 78%
01:00 +20°C° 0 mm 2 mps 743 mmHg 79%
02:00 +19°C° 0 mm 2 mps 743 mmHg 81%
03:00 +19°C° 0 mm 2 mps 743 mmHg 81%
04:00 +19°C° 0 mm 2 mps 743 mmHg 81%
05:00 +18°C° 0 mm 2 mps 743 mmHg 82%
06:00 +21°C° 0 mm 1 mps 743 mmHg 75%
07:00 +23°C° 0 mm 1 mps 743 mmHg 68%
08:00 +25°C° 0 mm 1 mps 743 mmHg 61%
09:00 +26°C° 0 mm 2 mps 743 mmHg 56%
10:00 +28°C° 0 mm 2 mps 743 mmHg 51%
11:00 +29°C° 0 mm 2 mps 743 mmHg 45%
12:00 +29°C° 0 mm 2 mps 743 mmHg 46%
13:00 +29°C° 0 mm 2 mps 743 mmHg 46%
14:00 +29°C° 0 mm 3 mps 742 mmHg 47%
15:00 +28°C° 0 mm 3 mps 742 mmHg 52%
16:00 +27°C° 0 mm 3 mps 742 mmHg 56%
17:00 +26°C° 0 mm 3 mps 742 mmHg 61%
18:00 +25°C° 0.1 mm 3 mps 742 mmHg 68%
19:00 +23°C° 0.1 mm 2 mps 742 mmHg 74%
20:00 +21°C° 0.1 mm 2 mps 742 mmHg 81%
21:00 +20°C° 0 mm 2 mps 742 mmHg 83%
22:00 +20°C° 0 mm 1 mps 742 mmHg 86%
23:00 +20°C° 0 mm 1 mps 742 mmHg 88%

30 July, Friday

Time Temperature Precipitation Wind Pressure Humidity
00:00 +20°C° 0 mm 1 mps 742 mmHg 87%
01:00 +20°C° 0 mm 1 mps 742 mmHg 87%
02:00 +20°C° 0 mm 1 mps 742 mmHg 86%
03:00 +20°C° 0 mm 1 mps 742 mmHg 86%
04:00 +20°C° 0 mm 1 mps 742 mmHg 86%
05:00 +17°C° 0 mm 0 mps 742 mmHg 85%
06:00 +21°C° 0 mm 1 mps 742 mmHg 79%
07:00 +23°C° 0 mm 1 mps 742 mmHg 73%
08:00 +24°C° 0 mm 1 mps 742 mmHg 67%
09:00 +26°C° 0 mm 1 mps 742 mmHg 60%
10:00 +27°C° 0 mm 1 mps 742 mmHg 53%
11:00 +28°C° 0 mm 2 mps 742 mmHg 46%
12:00 +29°C° 0 mm 2 mps 741 mmHg 44%
13:00 +29°C° 0 mm 3 mps 741 mmHg 42%
14:00 +30°C° 0 mm 3 mps 741 mmHg 40%
15:00 +30°C° 0 mm 3 mps 740 mmHg 41%
16:00 +30°C° 0 mm 3 mps 740 mmHg 42%
17:00 +29°C° 0 mm 3 mps 740 mmHg 44%
18:00 +27°C° 0 mm 3 mps 740 mmHg 51%
19:00 +26°C° 0 mm 3 mps 739 mmHg 58%
20:00 +24°C° 0 mm 2 mps 739 mmHg 66%
21:00 +23°C° 0 mm 2 mps 739 mmHg 69%
22:00 +21°C° 0 mm 2 mps 738 mmHg 71%
23:00 +21°C° 0 mm 3 mps 738 mmHg 74%
Show more